Weather in Kargopol

Russia / Arkhangel'skaya Oblast'     61°30′19″N   38°56′53″E
temp.,
°C
wind,
m/s
gust,
m/s
humid.,
%
clouds,
%
prec.,
mm/h
press.,
hPa
HPBL,
m
23 april, fri
fri2300:00+2s279423 0.0 1013119
03:00+1sse27955 0.0 1013135
06:00+3sse2109558 0.0 1012218
09:00+9sse4117885 0.0 1011552
12:00+13sse51067100 0.1 10101384
15:00+14sse5106268 0.6 10101705
18:00+11sse41074100 0.9 1009867
21:00+9s41185100 1.8 1010442
24 april, sat
sat2400:00+7sw3696100 0.3 1010406
03:00+5sw1494100 0.5 1010260
06:00+5ene1395100 0.5 1010214
09:00+9se41086100 0.6 1008972
12:00+13se6126664 0.5 10061676
15:00+14se6126150 1.5 10051682
18:00+12se51168100 1.8 1004961
21:00+9se4127786 2.5 1004913
25 april, sun
sun2500:00+7ese412807 0.0 1004634
03:00+6e41189100 0.0 1003534
06:00+6e4987100 0.0 1002672
09:00+6e4888100 0.2 10021020
12:00+6ene3694100 1.4 1002973
15:00+6ne3694100 1.9 1001828
18:00+5ene3593100 0.2 1001795
21:00+5ne2596100 0.9 1001534
26 april, mon
mon2600:00+5ne2497100 0.8 1001770
03:00+4nne2498100 1.5 1001614
06:00+4ne2398100 0.9 1001702
09:00+4ne1298100 1.8 1001716
12:00+4ne1295100 0.9 1002780
15:00+4ene1195100 2.1 1002567
18:00+4sw1197100 1.4 1002269
21:00+2sw2498100 2.4 1002208
27 april, tue
tue2700:00+1ssw2598100 1.6 1002232
03:00+1ssw2499100 3.4 1002165
06:00+1ssw2399100 1.1 1001157
09:00+1ssw1299100 1.9 1001153
12:00+1ssw12100100 1.1 1001155
15:00+2w12100100 2.6 1002249
18:00+2nnw3798100 1.1 1002661
21:00+2nnw3898100 1.4 1003646